TimeMST,TemperatureF,Dew PointF,Humidity,Sea Level PressureIn,VisibilityMPH,Wind Direction,Wind SpeedMPH,Gust SpeedMPH,PrecipitationIn,Events,Conditions,WindDirDegrees,DateUTC
12:53 AM,32.0,24.1,73,30.29,10.0,South,6.9,-,N/A,,Clear,170,2012-12-04 07:53:00
1:53 AM,32.0,24.1,73,30.28,10.0,South,6.9,-,N/A,,Clear,170,2012-12-04 08:53:00
2:53 AM,33.1,24.1,70,30.28,10.0,SSE,6.9,-,N/A,,Partly Cloudy,160,2012-12-04 09:53:00
3:53 AM,34.0,23.0,64,30.27,10.0,South,6.9,-,N/A,,Mostly Cloudy,180,2012-12-04 10:53:00
4:53 AM,34.0,24.1,67,30.28,10.0,South,6.9,-,N/A,,Overcast,170,2012-12-04 11:53:00
5:53 AM,35.1,23.0,61,30.29,10.0,SSE,6.9,-,N/A,,Overcast,160,2012-12-04 12:53:00
6:53 AM,35.1,23.0,61,30.31,10.0,Calm,Calm,-,N/A,,Overcast,0,2012-12-04 13:53:00
7:53 AM,36.0,24.1,62,30.32,10.0,South,4.6,-,N/A,,Overcast,180,2012-12-04 14:53:00
8:53 AM,37.9,23.0,55,30.35,10.0,Calm,Calm,-,N/A,,Overcast,0,2012-12-04 15:53:00
9:53 AM,37.0,30.0,76,30.39,8.0,ENE,3.5,-,0.00,Rain,Light Rain,70,2012-12-04 16:53:00
10:53 AM,39.0,32.0,76,30.36,10.0,SE,3.5,-,0.01,,Overcast,130,2012-12-04 17:53:00
11:53 AM,42.1,34.0,73,30.33,10.0,SSE,5.8,-,0.00,Rain,Light Rain,160,2012-12-04 18:53:00
12:53 PM,42.1,37.0,82,30.32,10.0,WNW,6.9,-,0.00,,Overcast,290,2012-12-04 19:53:00
1:53 PM,39.9,36.0,86,30.32,10.0,ENE,4.6,-,0.00,,Overcast,70,2012-12-04 20:53:00
2:53 PM,41.0,37.0,86,30.28,10.0,SE,6.9,-,0.00,Rain,Light Rain,130,2012-12-04 21:53:00
3:53 PM,44.1,37.9,79,30.28,10.0,Calm,Calm,-,0.00,Rain,Light Rain,0,2012-12-04 22:53:00
4:53 PM,43.0,39.9,89,30.27,8.0,SSE,4.6,-,0.02,Rain,Light Rain,150,2012-12-04 23:53:00
5:53 PM,41.0,39.0,93,30.28,10.0,South,4.6,-,0.02,Rain,Light Rain,170,2012-12-05 00:53:00
6:53 PM,41.0,39.0,93,30.22,10.0,South,6.9,-,0.00,,Overcast,170,2012-12-05 01:53:00
7:53 PM,42.1,39.0,89,30.19,10.0,SE,6.9,-,N/A,,Overcast,140,2012-12-05 02:53:00
8:53 PM,39.0,37.9,96,30.17,6.0,North,5.8,-,N/A,,Mostly Cloudy,360,2012-12-05 03:53:00
9:53 PM,39.0,37.0,93,30.22,7.0,NNE,6.9,-,N/A,,Overcast,20,2012-12-05 04:53:00
10:53 PM,41.0,37.9,89,30.20,9.0,SW,4.6,-,N/A,,Overcast,220,2012-12-05 05:53:00
11:53 PM,41.0,37.9,89,30.19,8.0,Calm,Calm,-,N/A,,Overcast,0,2012-12-05 06:53:00